Temp_Advection
nan nan nan nan nan nan nan nan nan nan nan nan nan nan nan nan nan nan nan nan nan nan nan nan nan nan nan nan nan nan nan nan nan nan nan nan nan nan nan nan nan nan nan nan nan
nan 0 0 0 -0 -0 0 0 0 -0 -0 -0 0 0 -0 0 0 -1 -1 0 0 0 0 0 0 0 -0 -0 -0 -1 0 0 -0 -0 0 0 -0 -0 -0 -0 -0 -0 0 0 nan
nan -0 0 -0 0 -0 0 0 0 0 -0 -0 0 0 0 0 -0 -1 0 0 0 0 0 0 0 -0 -0 -0 -0 -0 -0 0 0 0 -0 -0 -0 -0 0 -0 -0 -0 -0 -0 nan
nan 0 0 -0 -1 0 0 1 1 0 0 -0 0 0 -0 -0 -0 0 0 0 0 0 0 0 -0 -0 -0 0 -0 -0 0 0 -0 -0 -0 0 -0 -0 -0 -1 -0 0 -0 -1 nan
nan 0 0 1 -0 -1 1 1 1 0 0 0 0 0 -0 -2 -0 1 0 0 0 0 0 0 -0 -0 -0 0 -0 -0 -0 0 -0 -0 -0 0 0 -0 -1 -1 -0 -0 -0 -0 nan
nan 0 0 1 0 -1 -0 0 0 0 0 0 0 0 -1 -1 0 0 0 0 0 0 0 -0 -0 -0 -0 -0 -0 -0 -0 -0 -0 -0 0 0 -0 -0 -0 -0 -0 -0 -0 -0 nan
nan 1 0 1 1 -0 -0 -0 0 0 0 0 0 0 -2 -1 0 0 0 0 0 0 -0 -0 0 -0 -0 -0 -0 -0 -0 -0 -0 -0 0 0 0 -0 -1 -0 -0 -0 -0 0 nan
nan 1 1 1 0 0 0 0 0 0 0 0 0 -0 -1 0 0 0 0 0 0 0 0 -0 0 -0 -0 -0 -0 -0 -0 -0 -0 0 -0 -0 -0 -0 0 -0 -0 -0 -0 -0 nan
nan 1 1 1 0 0 0 0 0 0 0 0 0 -1 -0 0 0 0 0 0 0 0 0 0 -0 -1 -0 -0 -0 0 -0 -0 -0 -0 -0 0 -0 -0 -0 0 -0 -1 -0 -0 nan
nan 1 1 0 0 0 0 0 0 0 0 0 -0 -1 -0 -0 0 0 0 0 0 0 0 -0 -1 -1 -0 0 -0 0 -0 -0 -0 -0 -0 0 -1 -1 -0 -0 -0 -0 -0 -0 nan
nan 1 0 0 0 0 0 0 -0 -1 -2 -1 -0 0 0 0 0 0 0 0 -0 -1 -0 -1 -1 0 -0 0 -0 0 0 0 -0 -0 -0 0 -0 -1 -1 0 0 -0 -0 -0 nan
nan 0 0 0 0 0 0 -0 -0 0 -0 0 0 0 0 0 0 0 0 -0 -1 -0 -0 -0 0 -0 -0 0 -0 -0 0 0 -0 -0 0 -0 -0 -0 -0 -0 0 -0 -0 -0 nan
nan 0 0 0 0 0 -1 -1 -0 0 -0 -0 0 0 0 -0 -0 -0 -0 -0 -0 -0 -0 0 -0 -0 0 0 0 0 -0 0 0 -0 -0 -0 -0 -0 0 -0 -0 -0 -0 -0 nan
nan 0 0 0 0 -0 -0 -0 -0 -0 -0 -0 -0 0 0 -0 0 0 -0 -0 -0 -0 -0 0 -0 -0 0 -0 -0 0 -0 0 0 -0 -0 0 -0 -0 -0 0 -0 -1 -0 -0 nan
nan 0 0 0 -0 -0 -0 -0 -0 0 0 -1 -0 -0 0 -0 0 0 0 -0 -0 -0 0 -0 -0 -0 -0 -0 -0 0 -0 -0 -0 -0 -0 0 0 -1 -0 -0 0 -0 -0 -0 nan
nan 0 0 -0 -0 -0 -0 -0 -0 -1 -0 -0 -0 -0 -0 -0 0 0 -0 -0 -0 -0 -0 0 -0 -0 -0 -0 0 -0 -0 -0 -0 -0 0 -0 0 -0 -0 -0 -0 -0 -0 -0 nan
nan 0 -0 -0 -0 0 0 -0 -1 0 -0 0 -0 -0 -0 -0 0 -0 -0 -0 -0 -0 -0 -0 -0 -0 0 -0 -0 -1 -0 -0 0 0 -0 0 0 -1 -0 0 -0 -1 -1 0 nan
nan 0 -0 0 0 0 -0 -1 0 -0 -0 -0 0 0 0 0 -0 -0 -0 0 -0 -0 -0 0 -0 -0 0 -0 0 -0 -0 -0 -0 0 -0 -0 -0 -0 -0 -0 0 -0 -0 -0 nan
nan 0 0 0 0 -0 -0 -1 -0 -0 -0 0 0 -0 0 0 -0 -0 -0 -0 -0 -0 -0 0 -0 0 -0 -0 -0 -0 0 -0 -0 -0 0 0 -1 -1 -0 -0 -0 -0 -0 -0 nan
nan -0 0 0 0 -0 -1 0 -0 -0 0 0 0 -0 -0 -0 0 -0 -0 -0 -0 -0 -0 -0 -0 -0 -0 0 -0 0 -0 -0 0 0 0 0 -0 -0 -0 -0 0 -0 -1 -0 nan
nan -0 -0 0 -0 -1 -1 -0 -0 -0 0 0 0 0 -0 -0 0 -0 -0 0 -0 -0 -0 -0 -0 -0 -0 0 0 0 0 -0 -0 -0 0 -0 0 -0 -0 -0 -0 -0 -1 -0 nan
nan -0 -0 -0 -1 -1 0 -0 -0 0 0 0 0 0 0 0 -0 -0 -0 -0 -0 -0 0 0 -0 -0 -0 -0 -0 -0 0 -0 0 0 0 0 -1 -0 -0 -0 -0 -1 -1 -0 nan
nan -0 -0 -0 -0 0 -0 0 0 -0 -0 -0 -0 -0 0 0 0 0 -0 -0 0 -0 -0 -0 0 0 -0 0 0 0 0 -0 -0 -0 -0 0 -1 0 0 -0 -1 -0 -1 -1 nan
nan -0 0 -0 -0 -0 0 0 0 -0 0 -0 -0 0 -0 0 0 -0 -0 0 0 0 -0 -0 0 -0 0 0 0 0 0 0 0 -0 -0 -1 -2 -1 1 0 -1 -1 -0 0 nan
nan -0 -0 -0 -0 0 0 0 0 0 0 0 0 0 0 -0 0 0 -0 -0 0 0 0 0 0 0 -0 -0 -0 -0 0 0 -0 -1 -0 -0 -0 -1 1 0 -1 -1 -0 -1 nan
nan 0 0 -0 -0 0 -0 -0 -0 -0 -0 -0 -0 0 0 0 -0 -0 -0 0 0 -0 0 0 -0 0 -0 -0 0 -0 -0 -0 -1 0 -0 -0 -1 -2 -0 1 -0 -1 -0 0 nan
nan nan nan nan nan nan nan nan nan nan nan nan nan nan nan nan nan nan nan nan nan nan nan nan nan nan nan nan nan nan nan nan nan nan nan nan nan nan nan nan nan nan nan nan nan
Wind_Speed
15 13 16 16 16 18 19 24 22 24 26 26 23 23 20 16 14 14 15 11 6 9 10 9 10 11 8 6 6 3 4 2 4 5 2 3 3 2 5 6 5 4 4 4 5
15 18 19 19 21 25 30 26 25 27 29 27 24 22 19 18 14 15 13 6 8 10 11 10 10 9 6 4 5 6 3 4 1 2 1 0 2 5 6 7 6 11 13 13 13
23 27 23 19 16 17 29 25 28 29 29 26 24 22 20 18 14 13 12 7 7 9 10 9 9 7 7 6 6 3 2 2 2 3 1 3 4 4 4 6 7 8 11 13 17
26 23 20 16 19 22 32 28 31 30 28 24 18 17 13 8 4 9 9 7 5 6 7 7 5 4 5 4 5 5 6 3 1 1 2 4 6 6 10 13 13 18 22 24 18
30 25 23 16 20 26 33 31 34 29 23 16 12 12 8 16 10 10 9 6 5 6 6 6 8 4 5 4 3 4 1 2 0 4 5 6 7 8 18 19 13 9 8 12 12
34 27 30 32 26 36 36 35 31 21 16 11 9 9 10 14 11 11 10 6 6 6 6 5 6 11 8 4 4 2 3 6 2 2 3 4 5 2 3 3 1 4 7 13 18
26 30 36 46 39 42 39 33 20 17 13 10 12 12 21 12 10 10 10 10 10 7 8 9 9 3 4 4 3 2 2 3 3 1 2 6 7 8 12 4 7 14 23 18 16
29 39 43 44 42 38 35 23 17 15 13 15 10 5 11 12 10 7 11 11 11 11 10 10 10 10 5 5 4 4 4 3 1 1 1 3 10 4 7 8 19 28 23 17 13
40 48 42 40 35 31 24 20 17 15 13 11 11 12 6 10 9 11 10 11 11 11 10 8 6 6 4 4 4 6 1 2 7 3 2 2 10 5 7 20 29 25 18 14 13
36 35 39 37 31 28 24 20 16 15 15 13 10 10 7 6 9 9 8 6 6 10 7 4 5 4 5 5 2 1 2 3 5 3 3 6 20 20 19 18 23 19 12 11 12
32 32 30 27 28 27 26 19 10 15 31 16 14 17 9 10 10 7 6 7 6 6 4 5 7 3 1 2 3 3 0 3 5 3 7 4 14 20 23 16 11 7 7 8 12
29 24 19 17 15 12 3 10 12 12 16 16 17 17 12 7 5 6 4 3 5 4 2 6 3 2 2 1 1 1 2 5 6 3 4 6 19 12 7 3 3 6 8 9 13
15 13 16 17 16 18 23 21 14 9 7 8 12 8 7 9 7 10 6 4 6 6 5 5 2 1 2 2 3 2 2 2 5 7 1 8 7 5 2 5 8 10 11 12 15
18 13 11 9 8 11 10 8 5 3 5 9 7 6 7 3 5 10 6 3 5 3 2 4 1 1 1 2 1 3 3 2 5 5 3 5 4 6 4 8 7 16 18 17 15
10 12 13 12 6 6 3 3 2 3 6 5 5 4 7 5 1 7 8 5 3 2 4 2 3 2 2 2 1 4 2 3 1 1 4 1 3 7 4 6 6 9 13 17 13
7 9 12 10 10 9 4 2 1 6 1 5 4 5 4 5 3 3 3 4 3 3 3 1 2 2 2 2 1 4 3 5 3 1 3 2 4 5 4 6 5 4 5 10 12
4 8 12 11 10 8 5 1 5 6 3 3 2 4 3 3 3 4 4 5 3 4 5 4 1 1 1 2 2 7 5 3 5 4 4 2 2 10 7 7 7 11 16 12 13
6 7 8 10 9 7 5 5 9 2 3 3 1 3 3 5 3 4 3 4 3 4 2 3 6 1 2 2 3 2 4 4 4 2 5 1 6 6 6 7 14 13 14 15 14
4 4 8 9 9 9 3 6 6 6 3 3 2 3 4 2 0 4 0 1 1 1 3 3 4 1 2 1 4 1 1 2 3 2 3 3 7 10 6 5 6 9 10 13 13
2 2 8 9 10 8 5 3 2 3 1 1 3 3 3 2 1 2 1 2 3 2 3 3 4 2 2 1 0 2 4 2 3 2 5 5 6 6 4 6 5 6 10 9 9
3 2 8 9 6 6 4 3 3 2 1 2 2 1 2 2 1 1 3 2 4 4 3 4 3 4 1 5 6 2 1 1 2 4 3 4 7 8 9 8 7 9 10 10 11
1 2 6 6 4 4 2 4 3 3 3 1 1 1 2 1 1 1 2 3 7 6 2 1 3 4 8 1 1 3 5 5 4 3 2 1 8 4 8 8 9 14 13 15 17
1 2 4 5 3 1 0 1 1 2 2 2 2 3 2 2 0 3 2 1 8 5 5 4 0 4 6 4 2 4 5 4 3 2 6 4 7 3 5 8 15 16 22 29 25
2 2 3 4 5 5 2 1 1 2 1 2 2 0 0 2 3 2 3 3 8 5 4 6 4 7 6 4 3 4 5 6 6 3 4 11 16 23 13 13 20 29 34 32 30
4 2 2 1 3 2 2 2 1 1 3 3 2 4 5 2 2 4 3 2 3 5 6 4 5 5 7 14 10 15 15 10 11 13 9 3 10 22 15 10 18 30 36 31 25
4 3 2 0 1 1 1 4 5 2 5 3 4 1 6 5 7 4 3 2 5 1 5 2 4 1 6 14 9 11 16 19 21 22 21 26 30 30 42 33 23 20 24 22 23
7 6 3 2 2 2 3 3 4 3 3 5 8 3 5 11 18 18 16 15 9 7 6 4 2 3 6 4 9 9 8 13 8 6 20 15 20 14 18 15 21 22 20 21 21
Wind_Direction
162 170 173 176 187 188 183 164 157 148 144 145 140 136 135 136 142 131 78 14 64 111 130 137 146 144 138 84 65 69 63 149 181 143 165 21 38 352 306 269 278 251 252 253 277
158 154 153 158 178 173 153 163 147 146 149 143 137 134 132 131 131 106 43 85 117 123 138 136 124 132 78 61 40 61 92 175 10 77 125 228 23 326 323 292 277 262 257 260 279
136 144 148 157 187 167 140 148 145 150 145 138 137 138 139 135 120 34 66 78 106 120 136 119 103 92 72 52 32 51 86 140 49 103 36 314 315 304 271 283 276 296 303 290 294
118 128 138 144 151 170 137 146 145 142 137 142 141 146 149 135 93 33 56 62 107 128 141 122 108 62 69 69 44 90 53 45 143 352 323 303 298 287 251 260 293 297 295 297 304
100 114 128 119 160 124 129 143 137 137 138 136 132 131 114 88 61 53 55 63 95 128 137 110 77 74 85 76 71 72 346 59 329 294 301 290 268 264 272 290 289 295 302 307 308
79 84 99 114 141 128 131 132 131 133 129 117 119 114 118 76 66 53 58 62 109 128 107 84 90 91 93 72 73 54 328 308 319 315 281 297 289 358 259 5 296 320 316 309 293
83 89 115 114 125 124 127 129 123 120 113 116 110 115 91 75 59 60 70 81 94 112 106 93 103 72 92 80 66 50 20 353 3 315 295 344 289 227 249 282 284 303 311 301 301
91 104 110 113 121 125 127 117 108 105 110 108 108 107 77 70 64 76 81 87 97 101 104 103 98 88 58 105 39 43 46 12 323 301 301 62 276 266 211 278 290 303 303 301 295
95 107 105 113 116 125 120 115 110 112 109 111 103 98 75 73 78 76 83 86 92 99 100 110 86 69 56 69 26 10 229 320 327 14 297 187 276 210 249 293 295 299 300 288 278
100 109 116 116 120 122 118 109 98 103 98 90 72 76 62 60 72 68 78 85 90 102 88 59 56 71 33 55 223 302 5 309 260 303 316 263 264 284 290 291 287 290 280 278 290
100 112 109 112 115 116 115 110 85 59 63 65 75 86 78 82 71 60 77 70 73 64 60 28 69 91 275 23 132 117 157 273 263 275 317 244 280 291 299 288 277 263 256 278 299
98 99 101 113 124 129 63 93 98 117 73 66 72 75 63 68 76 59 53 91 59 67 354 29 85 204 268 352 65 76 329 292 281 252 306 333 301 292 291 296 289 239 253 278 302
96 94 95 94 102 107 100 98 107 110 82 39 38 44 38 48 46 18 40 65 71 51 27 111 147 154 54 356 0 264 220 287 250 317 299 317 306 333 342 304 276 251 256 273 301
92 74 90 83 79 88 74 91 105 138 81 336 357 28 13 22 48 30 39 69 44 124 88 86 201 73 47 249 179 292 198 298 314 19 296 34 282 301 316 296 257 261 252 264 288
87 77 67 65 59 55 58 107 143 148 67 300 333 359 7 61 70 20 37 57 91 94 80 235 169 198 224 227 181 249 344 312 344 41 17 357 67 270 337 289 283 276 260 258 273
88 55 28 19 30 35 63 61 102 41 276 335 328 357 32 35 34 359 51 68 96 92 15 134 224 194 241 296 252 339 17 42 54 19 23 240 120 278 210 215 272 261 267 270 281
360 353 350 4 10 17 23 60 39 89 285 337 355 24 1 343 17 24 28 22 50 50 357 333 262 266 221 351 24 45 47 342 356 9 222 231 54 246 251 245 237 273 291 279 279
326 336 1 10 13 21 5 56 68 183 212 270 328 355 31 8 21 31 39 14 56 72 88 65 336 193 154 185 191 69 120 139 245 310 283 261 233 251 215 254 283 279 285 282 282
355 14 17 23 18 2 352 51 180 209 181 143 46 47 343 12 18 31 32 193 288 63 98 44 282 280 197 162 120 120 36 171 116 257 294 252 284 291 258 272 267 275 277 279 282
357 45 15 6 359 6 70 125 156 224 133 62 151 180 180 260 162 57 178 194 166 149 137 186 323 270 323 126 66 175 158 43 14 13 302 288 280 240 274 224 239 262 260 279 299
352 28 4 1 7 39 99 199 202 184 138 148 210 186 244 261 249 249 210 207 190 170 141 139 132 281 99 200 186 121 294 100 124 155 196 299 269 214 213 207 215 241 263 286 312
58 52 357 2 39 40 97 160 151 176 174 166 147 198 212 270 304 267 242 237 184 159 162 195 148 269 228 201 204 191 203 156 129 239 240 169 271 254 230 245 261 268 287 309 295
59 70 15 12 92 51 232 110 172 128 227 196 237 207 168 187 277 203 255 300 175 158 168 178 291 329 344 4 15 218 201 174 121 87 206 158 260 4 320 287 270 270 284 305 304
7 31 54 63 82 124 137 163 169 201 194 209 246 113 69 267 223 252 243 215 201 202 172 159 178 199 207 208 156 221 216 195 167 175 205 229 277 269 283 284 288 289 295 300 303
25 45 56 323 18 68 95 151 151 242 211 224 281 212 186 237 239 233 240 273 210 203 161 151 232 202 252 262 251 254 248 223 208 216 214 265 242 273 281 274 281 296 300 304 305
30 18 7 131 257 121 24 203 191 222 166 228 202 229 200 212 204 232 191 216 229 111 163 188 271 315 261 257 255 258 243 232 234 237 251 259 273 274 275 288 283 293 306 305 308
24 7 355 2 11 70 233 193 210 185 230 228 206 179 214 240 255 267 263 255 245 172 193 171 211 4 274 331 305 281 233 195 196 218 220 231 238 268 284 278 274 289 301 297 298
Height
1449 1453 1458 1461 1464 1468 1471 1480 1485 1490 1494 1498 1501 1504 1507 1509 1510 1512 1512 1518 1517 1517 1518 1518 1519 1519 1521 1523 1525 1526 1539 1546 1541 1541 1540 1540 1539 1538 1538 1537 1537 1537 1536 1536 1535
1451 1454 1458 1460 1465 1470 1474 1482 1487 1492 1496 1500 1503 1506 1507 1509 1511 1512 1518 1517 1518 1519 1519 1520 1522 1521 1523 1526 1528 1530 1543 1541 1541 1541 1541 1541 1540 1540 1538 1535 1534 1534 1534 1534 1533
1453 1458 1461 1466 1467 1472 1476 1485 1490 1494 1498 1503 1506 1507 1509 1510 1512 1520 1519 1520 1520 1520 1522 1522 1523 1523 1525 1528 1532 1535 1543 1542 1542 1542 1542 1542 1540 1539 1537 1534 1531 1531 1531 1531 1531
1457 1461 1463 1466 1470 1474 1482 1488 1493 1499 1503 1506 1509 1510 1511 1512 1524 1522 1521 1522 1522 1523 1524 1524 1524 1526 1529 1533 1536 1541 1542 1543 1544 1543 1543 1542 1541 1538 1535 1530 1531 1531 1529 1528 1527
1462 1465 1467 1468 1471 1477 1483 1491 1498 1504 1507 1510 1511 1512 1513 1514 1525 1524 1523 1524 1524 1524 1525 1526 1527 1528 1533 1535 1538 1540 1543 1543 1543 1543 1542 1541 1539 1538 1530 1530 1529 1529 1528 1527 1526
1467 1467 1466 1466 1478 1485 1491 1500 1505 1508 1510 1512 1513 1513 1515 1519 1528 1526 1525 1525 1525 1527 1527 1528 1530 1531 1535 1538 1540 1544 1544 1542 1542 1542 1541 1541 1538 1537 1529 1528 1528 1527 1527 1526 1525
1473 1474 1477 1480 1486 1493 1500 1506 1510 1511 1513 1514 1514 1517 1516 1528 1529 1528 1528 1527 1527 1529 1529 1531 1533 1534 1537 1539 1542 1544 1545 1542 1542 1543 1543 1541 1535 1533 1526 1527 1526 1525 1524 1522 1520
1481 1481 1484 1491 1498 1503 1507 1512 1514 1515 1516 1516 1517 1518 1525 1530 1531 1531 1530 1530 1530 1530 1531 1533 1535 1535 1539 1542 1544 1547 1548 1550 1544 1544 1544 1544 1539 1525 1526 1526 1523 1522 1520 1519 1517
1491 1492 1496 1501 1507 1511 1514 1515 1516 1517 1518 1519 1521 1521 1531 1533 1534 1532 1532 1533 1533 1532 1534 1536 1536 1540 1544 1548 1554 1556 1552 1551 1549 1545 1545 1545 1536 1524 1525 1524 1519 1517 1516 1515 1515
1501 1503 1507 1510 1513 1515 1516 1518 1519 1521 1521 1522 1524 1525 1536 1538 1536 1535 1536 1536 1535 1535 1537 1538 1540 1547 1553 1559 1562 1555 1557 1555 1555 1547 1544 1544 1532 1519 1520 1519 1515 1514 1513 1513 1512
1511 1514 1515 1516 1518 1519 1519 1520 1524 1527 1526 1533 1535 1535 1538 1539 1538 1538 1538 1538 1538 1538 1543 1544 1553 1563 1556 1555 1555 1555 1557 1558 1552 1546 1544 1536 1530 1516 1512 1512 1510 1510 1511 1512 1511
1522 1522 1523 1523 1523 1523 1523 1522 1526 1533 1537 1539 1539 1539 1540 1540 1540 1540 1540 1541 1540 1547 1546 1551 1559 1555 1554 1555 1555 1555 1557 1556 1550 1547 1546 1537 1524 1513 1510 1509 1508 1509 1510 1509 1508
1528 1528 1528 1528 1527 1527 1527 1527 1530 1531 1535 1543 1543 1542 1542 1543 1543 1542 1542 1542 1543 1548 1551 1555 1556 1554 1553 1555 1554 1554 1555 1555 1559 1550 1544 1541 1523 1514 1509 1509 1507 1507 1507 1506 1505
1534 1534 1533 1531 1533 1531 1532 1532 1532 1533 1548 1550 1546 1546 1546 1543 1545 1545 1543 1545 1546 1551 1552 1553 1553 1553 1554 1555 1555 1555 1551 1551 1554 1556 1563 1548 1545 1521 1513 1511 1506 1504 1503 1502 1502
1538 1537 1536 1535 1535 1534 1535 1533 1533 1533 1577 1553 1548 1547 1546 1546 1548 1546 1545 1544 1549 1550 1554 1555 1555 1555 1554 1552 1552 1552 1549 1551 1552 1559 1561 1552 1567 1523 1518 1509 1503 1499 1498 1499 1499
1540 1539 1537 1537 1536 1535 1534 1533 1533 1551 1577 1557 1550 1549 1547 1547 1548 1548 1547 1548 1549 1550 1552 1553 1553 1553 1552 1551 1550 1550 1551 1554 1556 1560 1577 1551 1562 1530 1521 1508 1500 1496 1496 1497 1496
1540 1539 1537 1536 1536 1534 1533 1534 1551 1569 1559 1554 1553 1550 1551 1550 1549 1549 1549 1551 1556 1564 1574 1557 1553 1551 1551 1550 1550 1554 1567 1578 1567 1577 1559 1553 1566 1522 1503 1499 1497 1494 1493 1493 1492
1540 1539 1538 1536 1534 1533 1531 1534 1563 1559 1558 1553 1552 1551 1553 1551 1550 1550 1552 1557 1555 1558 1572 1572 1564 1551 1550 1551 1556 1555 1563 1581 1569 1577 1567 1549 1549 1513 1496 1493 1492 1492 1491 1490 1488
1539 1539 1538 1536 1534 1533 1533 1557 1561 1556 1551 1551 1551 1553 1555 1553 1554 1553 1554 1558 1556 1555 1562 1567 1556 1550 1550 1549 1552 1553 1566 1559 1571 1571 1559 1558 1530 1501 1491 1490 1489 1487 1486 1484 1483
1539 1538 1537 1536 1534 1533 1536 1553 1554 1553 1552 1551 1553 1554 1556 1555 1554 1555 1555 1553 1553 1553 1553 1559 1568 1551 1550 1550 1551 1552 1556 1565 1572 1569 1566 1554 1545 1523 1499 1489 1486 1485 1483 1481 1480
1539 1539 1539 1537 1536 1535 1553 1556 1552 1551 1552 1554 1555 1556 1556 1554 1554 1555 1552 1551 1550 1552 1553 1555 1563 1557 1552 1553 1553 1557 1558 1558 1564 1567 1570 1566 1531 1494 1489 1483 1482 1480 1480 1479 1477
1540 1541 1540 1539 1540 1546 1552 1550 1550 1551 1552 1551 1553 1554 1554 1553 1554 1554 1553 1551 1550 1551 1554 1555 1562 1569 1552 1547 1548 1549 1550 1555 1567 1558 1566 1565 1527 1481 1482 1481 1481 1480 1479 1477 1475
1539 1540 1541 1540 1551 1552 1551 1551 1551 1552 1552 1553 1552 1552 1552 1553 1555 1553 1551 1548 1549 1550 1553 1554 1563 1576 1553 1552 1547 1547 1546 1547 1553 1558 1559 1565 1515 1483 1483 1481 1480 1478 1475 1473 1472
1541 1543 1541 1541 1544 1547 1549 1550 1551 1551 1551 1552 1553 1552 1553 1554 1553 1553 1550 1547 1547 1548 1549 1551 1560 1558 1563 1541 1543 1544 1542 1543 1545 1560 1547 1527 1497 1475 1481 1479 1475 1473 1470 1468 1465
1543 1546 1546 1548 1547 1547 1548 1549 1550 1550 1551 1551 1552 1552 1554 1555 1552 1554 1550 1548 1548 1548 1549 1551 1556 1556 1549 1543 1542 1538 1537 1537 1541 1529 1530 1498 1502 1473 1476 1477 1471 1469 1465 1463 1460
1547 1548 1548 1547 1547 1547 1548 1548 1549 1548 1550 1551 1552 1549 1552 1554 1551 1550 1548 1549 1547 1549 1550 1552 1552 1550 1549 1534 1537 1532 1525 1525 1523 1519 1514 1502 1496 1473 1470 1469 1466 1463 1462 1460 1457
1549 1549 1549 1551 1550 1550 1549 1546 1546 1546 1546 1546 1546 1548 1549 1546 1544 1544 1544 1543 1543 1546 1550 1553 1554 1555 1544 1535 1534 1521 1500 1504 1505 1504 1501 1508 1475 1466 1464 1464 1460 1457 1457 1454 1453